Wind_Speed
11 10 8 12 14 15 15 15 17 19 18 22 20 20 22 23 23 24 24 24 26 26 24 24 21 20 21 22 25 26 29 31 31 32 30 27 27 27 27 30 30 31 31
8 7 6 10 15 16 17 17 17 18 19 19 21 21 23 26 25 24 24 27 28 26 25 26 23 23 22 24 26 26 28 29 31 31 31 27 27 27 28 28 29 29 29
7 2 5 8 15 19 19 20 20 19 20 22 23 23 25 27 28 26 26 27 31 27 25 25 23 23 22 23 25 25 25 22 24 26 24 25 25 24 23 23 24 24 25
5 3 6 8 15 17 20 22 22 22 24 27 26 25 26 27 27 27 28 29 28 28 24 24 23 23 23 23 24 25 29 26 21 22 24 20 19 21 21 20 20 23 22
2 2 7 6 11 18 20 23 25 22 25 28 29 28 27 28 28 29 29 28 28 28 25 24 23 25 24 22 28 32 30 27 21 23 21 19 18 18 20 21 20 22 23
1 2 7 8 11 15 20 24 25 22 27 29 34 31 29 30 31 31 29 28 26 28 26 26 23 26 25 27 29 28 28 26 21 20 18 19 20 21 22 23 22 24 24
1 1 4 7 13 16 17 21 23 20 22 22 22 32 32 32 33 33 29 28 26 28 27 25 27 27 27 29 25 23 18 15 21 23 22 19 18 19 20 21 22 22 22
1 3 5 7 11 18 20 25 25 23 23 18 19 29 38 36 37 36 31 29 26 28 29 26 29 28 28 28 23 16 13 14 25 22 20 20 19 19 20 21 22 23 22
1 2 6 7 7 13 20 27 29 23 27 22 37 36 38 39 40 37 34 32 29 27 26 29 29 27 29 26 21 19 14 18 25 23 20 21 19 19 20 21 21 21 21
2 2 4 5 7 10 17 27 25 19 20 30 27 36 39 39 41 37 35 31 28 26 27 28 28 28 29 25 21 17 16 24 20 22 21 21 20 18 19 20 21 21 21
4 7 5 5 7 11 12 19 21 16 22 21 28 47 41 42 40 38 35 30 28 28 28 28 29 28 28 25 21 20 15 18 24 22 19 19 19 19 18 18 19 19 19
9 9 6 7 8 10 10 13 13 13 25 21 29 38 42 39 39 36 32 32 30 28 28 28 28 29 28 26 21 13 13 21 20 17 22 19 18 18 17 17 17 17 17
12 10 8 6 6 10 11 13 11 8 22 23 30 38 40 36 39 37 35 32 30 29 29 28 30 27 30 24 17 7 13 20 20 19 21 18 18 17 17 16 17 16 16
11 12 10 9 8 5 7 12 13 8 17 11 26 17 43 36 36 38 36 35 32 28 30 33 27 23 23 19 9 17 15 22 20 17 21 18 17 16 15 15 15 14 14
4 9 9 9 7 6 7 7 12 13 13 17 29 35 38 36 35 36 31 32 33 28 30 28 20 23 23 16 14 17 8 23 18 15 21 18 17 16 15 13 13 12 12
3 4 7 7 6 6 7 11 10 12 6 8 35 43 38 36 36 33 33 29 28 30 27 22 24 23 21 16 18 13 10 18 18 15 20 20 18 17 15 14 13 13 13
7 6 6 7 8 9 8 8 13 14 19 30 34 35 35 34 34 34 32 31 27 28 26 21 24 21 20 18 17 15 13 14 18 21 15 20 18 17 16 16 15 14 13
9 9 9 8 10 9 7 9 13 14 20 25 28 29 31 34 33 32 33 32 29 29 27 23 24 22 21 21 19 16 15 13 16 19 14 16 19 20 19 17 17 17 16
10 9 10 9 10 9 10 11 14 18 24 32 37 36 30 33 28 31 31 31 34 29 25 27 22 22 22 20 18 16 16 15 16 13 18 19 18 19 19 21 20 20 18
11 11 11 11 10 9 9 12 17 23 28 32 37 40 38 33 27 23 25 27 30 31 25 26 23 20 21 18 17 16 12 12 15 16 16 16 19 18 21 17 20 22 21
13 14 13 13 12 12 13 12 17 19 30 30 38 45 41 32 27 24 25 27 24 25 25 23 22 19 14 11 14 12 9 9 12 15 19 19 19 19 21 21 25 25 24
15 16 15 14 14 14 12 13 15 22 25 34 34 40 42 34 24 24 24 20 20 22 23 21 21 18 14 17 10 8 3 7 15 20 19 21 21 22 25 23 22 24 23
16 18 17 18 19 16 18 23 26 29 28 33 35 34 33 32 24 24 24 26 21 25 26 23 23 22 18 20 18 8 3 4 7 16 25 22 23 25 25 25 28 29 26
17 18 17 17 20 21 21 22 25 25 23 26 33 36 36 34 25 21 23 26 26 24 23 22 23 22 18 15 19 25 17 5 2 1 14 26 26 25 28 30 27 29 32
21 21 19 19 18 21 22 21 20 21 23 28 26 29 30 27 27 28 31 29 24 23 21 22 21 20 20 16 17 13 17 16 13 7 3 10 26 29 29 30 32 35 31
22 22 21 20 19 23 23 26 22 23 27 26 28 31 29 28 30 31 28 26 22 22 24 18 24 23 26 17 22 20 13 8 11 9 5 10 12 19 27 31 34 34 38
Wind_Direction
89 118 125 146 154 162 168 166 166 169 169 168 166 161 156 147 143 138 135 131 127 124 123 120 125 118 110 110 112 113 109 105 101 100 100 98 98 97 96 94 95 95 95
77 128 139 159 168 171 176 173 175 169 164 166 164 157 154 147 143 137 135 133 129 127 126 123 122 118 118 119 118 115 111 112 109 106 99 95 93 95 99 100 99 99 98
75 145 168 179 176 178 184 183 177 175 173 172 166 161 158 152 147 142 139 137 134 131 129 127 123 119 122 124 124 118 112 108 108 106 100 97 93 95 99 103 102 100 97
76 107 213 182 185 183 189 191 183 184 185 179 172 168 167 157 150 146 146 142 139 134 133 131 127 123 128 129 125 125 119 116 112 100 99 100 97 98 102 102 97 98 101
90 136 201 200 203 193 191 195 192 191 193 187 175 173 173 163 156 151 150 146 141 135 134 130 130 134 136 135 132 125 118 107 107 102 104 108 105 105 104 100 98 99 95
318 188 208 214 201 207 200 202 200 200 209 196 179 176 175 166 157 156 154 148 144 139 137 132 132 135 137 136 137 129 122 113 114 114 112 117 115 106 105 105 105 102 103
245 234 211 201 203 199 203 211 191 190 200 209 190 184 176 170 162 161 156 149 148 146 141 136 136 135 136 140 141 140 137 136 129 118 116 116 118 116 111 109 106 105 104
209 208 236 210 216 209 204 207 200 194 187 164 237 206 176 173 168 160 155 152 152 153 149 143 141 143 143 145 141 139 128 113 123 119 115 122 118 116 115 112 110 107 105
11 210 214 212 250 220 219 219 221 223 228 200 240 265 182 172 166 159 159 158 162 161 151 148 145 147 145 145 138 129 111 110 120 118 119 122 121 121 119 114 110 108 106
103 177 219 227 221 248 206 212 217 228 234 227 229 263 177 181 163 160 161 161 165 159 151 148 148 148 148 142 136 125 106 114 112 119 128 130 125 122 117 116 113 110 107
170 175 185 209 219 204 211 215 223 227 232 218 210 235 173 169 160 160 160 161 163 157 151 147 147 147 145 141 134 127 115 120 120 126 130 132 128 126 121 117 115 114 112
184 164 173 184 194 213 199 226 227 230 219 216 209 221 170 159 156 152 160 158 159 155 149 147 145 141 139 141 142 140 113 121 121 124 137 139 132 126 124 121 118 119 121
139 165 162 172 175 194 204 207 228 237 231 211 203 210 173 160 151 155 154 155 157 153 149 143 139 133 141 146 134 108 124 122 125 125 140 145 137 134 135 132 130 129 126
173 158 169 176 190 213 189 208 200 201 212 191 215 232 170 155 153 154 153 158 157 151 147 145 136 145 144 150 137 146 148 132 139 142 150 152 144 144 146 144 138 135 133
300 132 164 181 204 215 188 164 184 179 176 203 220 214 160 152 149 150 151 156 153 159 157 149 148 147 155 156 145 150 152 140 140 147 158 160 157 154 156 155 150 147 150
243 128 153 170 182 184 171 169 163 185 163 169 146 166 162 153 150 150 151 159 158 159 160 157 153 153 155 156 150 157 144 134 145 150 168 168 171 167 168 167 162 166 169
153 117 160 178 181 182 160 161 167 170 160 144 148 154 151 150 153 152 153 165 164 160 163 166 153 156 154 154 158 154 155 154 144 157 167 176 178 183 182 182 178 185 186
138 144 152 162 168 181 178 189 164 172 174 173 145 148 147 152 152 156 161 170 166 166 166 163 157 157 158 159 158 160 162 166 151 163 168 184 189 195 194 196 196 197 197
137 155 161 161 172 188 203 205 204 183 181 170 164 163 160 158 154 161 171 172 166 164 168 155 162 168 163 159 163 168 169 172 172 176 182 189 195 199 208 206 208 209 211
139 156 162 151 167 185 220 235 216 196 192 183 181 171 170 162 168 167 167 170 163 156 153 162 168 158 164 164 168 168 169 175 179 194 199 198 205 203 220 224 217 218 220
156 155 158 155 160 155 155 153 194 179 182 182 178 178 176 162 160 159 148 144 147 146 151 160 152 161 158 139 111 124 184 199 203 207 208 211 215 214 218 225 229 225 226
166 163 163 163 157 142 126 125 146 157 150 149 149 157 163 162 153 159 157 149 145 152 155 161 158 139 142 166 133 178 205 221 230 222 223 222 222 226 227 226 237 231 235
170 171 173 170 159 142 132 119 117 133 128 132 133 137 149 162 158 160 172 167 159 163 160 159 164 166 168 193 167 203 209 210 188 222 223 224 229 228 231 234 228 230 233
175 176 177 169 155 156 147 136 137 142 143 145 147 150 152 161 162 160 165 159 159 167 175 179 186 184 180 187 196 234 248 267 218 136 216 225 226 232 233 232 236 239 236
175 176 175 172 164 159 157 156 148 148 146 149 152 146 153 168 165 174 174 170 172 193 194 197 195 198 195 196 196 214 237 241 246 215 245 228 230 233 234 238 240 239 242
169 176 175 176 171 169 161 161 162 152 151 150 158 163 170 176 187 187 186 183 193 201 206 197 221 214 213 209 233 232 219 211 212 214 219 251 258 256 238 239 239 245 245
Height
742 742 743 745 750 755 760 763 765 767 770 774 777 778 780 781 785 788 790 792 796 800 802 805 810 811 812 815 816 818 819 821 824 825 829 832 834 836 837 837 838 839 841
744 743 745 746 750 755 759 763 767 769 772 775 779 782 784 783 788 791 794 795 797 802 805 805 810 812 815 816 819 822 823 827 828 830 832 836 837 838 841 841 842 842 843
744 744 745 747 750 753 758 761 766 770 773 775 780 783 786 786 787 792 797 800 799 803 806 807 811 813 817 819 821 825 827 831 833 833 836 838 840 842 845 846 846 847 847
743 745 745 748 751 753 756 760 766 770 772 773 779 783 787 789 791 794 798 800 804 803 808 809 812 814 819 822 824 827 830 833 837 837 836 842 844 845 846 849 851 850 851
743 745 746 748 751 752 755 759 764 768 772 776 777 782 786 790 792 794 799 803 804 805 810 811 813 814 820 824 827 829 831 835 838 838 842 845 848 849 850 851 854 854 855
744 744 744 746 750 752 754 757 762 766 772 775 774 780 786 791 792 797 801 803 807 807 812 811 814 816 822 825 829 832 834 837 840 841 844 847 848 851 852 852 856 856 857
743 744 743 745 747 750 754 757 761 767 772 777 780 780 784 791 789 796 802 805 810 810 810 812 815 818 824 828 832 834 836 838 841 844 846 849 853 854 855 856 858 858 859
741 744 744 744 745 747 749 752 757 762 765 765 788 784 779 788 787 792 800 806 812 813 809 812 816 822 825 829 832 835 836 839 843 846 849 852 855 857 859 858 859 860 863
740 742 743 743 743 743 745 748 752 758 763 765 781 765 785 785 788 790 798 804 811 814 812 816 818 823 827 830 833 835 838 841 843 848 852 855 858 860 861 861 862 863 864
739 741 742 743 743 742 742 744 750 752 750 757 767 776 784 785 786 791 798 803 811 814 815 817 820 824 828 832 836 838 841 844 846 850 855 858 860 863 864 864 864 866 867
736 738 740 741 742 741 742 743 747 752 753 751 756 776 779 785 787 793 797 804 812 815 815 818 821 826 830 835 839 841 843 846 848 850 856 862 862 865 866 867 868 869 871
732 735 737 739 741 741 743 743 745 750 753 754 753 768 776 782 787 791 798 803 812 815 816 820 824 828 832 837 840 843 844 847 848 851 859 864 864 865 868 870 871 873 873
728 731 733 736 738 739 741 743 743 743 746 754 760 767 770 783 787 790 798 806 813 816 819 823 827 829 832 838 840 844 845 847 850 853 861 865 865 867 870 871 872 873 874
726 728 731 734 736 738 739 742 743 742 742 743 748 759 768 778 784 788 795 805 814 818 820 824 827 831 835 838 841 844 846 848 850 853 861 866 866 869 872 872 872 874 875
728 729 730 732 735 737 738 739 742 744 745 746 749 754 764 773 779 787 797 806 812 819 821 824 827 831 836 839 843 845 847 848 850 855 862 866 868 870 873 874 874 875 877
728 730 731 732 735 736 738 739 741 744 744 741 739 756 766 772 780 789 796 808 813 818 821 823 828 832 836 839 843 846 848 849 851 855 862 864 867 868 871 873 873 875 877
726 730 733 732 734 736 738 740 742 746 748 745 752 758 767 773 783 789 796 808 812 816 820 824 828 832 836 840 843 845 849 851 851 854 860 863 866 869 870 872 872 875 877
725 729 732 733 734 736 738 740 741 745 749 752 754 761 768 777 782 790 799 806 809 815 819 823 828 831 836 839 841 844 848 851 852 855 857 860 863 867 867 869 870 873 873
725 729 731 733 734 735 736 739 743 745 748 752 759 762 771 777 784 792 797 802 807 812 817 822 828 831 834 838 842 844 848 850 852 856 857 859 861 862 863 865 868 870 871
724 728 730 732 734 734 734 735 739 744 748 753 757 763 772 778 785 791 795 797 804 809 815 821 825 829 833 837 841 844 848 850 852 854 857 859 860 860 861 864 865 867 868
724 726 729 731 734 734 733 734 735 738 743 749 755 762 771 777 785 788 793 800 801 806 814 820 824 828 832 835 838 843 849 849 851 853 855 856 857 858 860 859 860 861 863
722 725 729 731 733 735 735 734 734 738 740 745 752 759 768 777 782 787 792 799 804 808 815 821 824 826 830 834 836 848 850 850 849 849 851 852 853 854 855 857 857 858 858
719 723 727 730 730 734 735 735 736 740 744 749 755 761 770 777 781 787 795 801 806 811 815 820 824 826 829 834 833 842 844 844 844 844 845 848 849 850 852 852 853 854 853
716 720 724 728 730 732 736 738 740 742 745 749 756 763 770 778 782 790 798 804 806 813 817 819 822 823 827 831 835 838 840 840 840 842 841 842 843 844 845 846 847 847 847
712 717 721 725 728 730 735 739 743 746 750 754 760 763 769 779 786 793 798 801 806 811 814 817 820 823 825 828 831 834 836 837 837 839 840 838 838 838 839 839 838 840 840
707 714 717 722 725 728 732 736 742 746 749 754 760 767 774 781 787 792 796 800 804 808 814 811 819 821 824 823 828 830 832 833 833 834 835 833 833 833 833 832 832 832 833